Location: Unspecified
(0.0000°N, 0.0000°E)
Time: 20:12:11
(UTC+00:00)

A-11 Canister half - Visible Passes

Search period start: 16 September 2019 00:00
Search period end: 26 September 2019 00:00
Orbit: 1527 x 1682 km, 47.3° (Epoch: 15 September)

Date Brightness Start Highest point End Pass type
(mag) Time Alt. Az. Time Alt. Az. Time Alt. Az.
16 Sep 10.1 03:43:45 25° NNW 03:43:45 25° NNW 03:48:43 10° N visible
17 Sep 10.3 03:23:46 22° N 03:23:46 22° N 03:27:18 10° N visible
18 Sep 10.6 03:03:43 17° N 03:03:43 17° N 03:05:51 10° NNE visible
19 Sep 10.9 02:43:38 13° NNE 02:43:38 13° NNE 02:44:23 10° NNE visible
